datetime,power release volume
1963-10-01,347.11249
1963-10-02,228.10249
1963-10-03,238.02
1963-10-04,238.02
1963-10-05,238.02
1963-10-06,218.185
1963-10-07,218.185
1963-10-08,178.515
1963-10-09,257.85501
1963-10-10,257.85501
1963-10-11,238.02
1963-10-12,218.185
1963-10-13,218.185
1963-10-14,257.85501
1963-10-15,257.85501
1963-10-16,247.9375
1963-10-17,238.02
1963-10-18,198.35001
1963-10-19,247.9375
1963-10-20,247.9375
1963-10-21,247.9375
1963-10-22,247.9375
1963-10-23,309.42599
1963-10-24,267.77249
1963-10-25,271.7395
1963-10-26,277.69
1963-10-27,277.69
1963-10-28,283.6405
1963-10-29,247.9375
1963-10-30,277.69
1963-10-31,390.74951
1963-11-01,378.84851
1963-11-02,374.8815
1963-11-03,378.84851
1963-11-04,396.70001
1963-11-05,390.74951
1963-11-06,390.74951
1963-11-07,418.51849
1963-11-08,1402.33447
1963-11-09,1709.77698
1963-11-10,436.37
1963-11-11,394.71649
1963-11-12,341.16199
1963-11-13,349.09601
1963-11-14,414.55151
1963-11-15,614.88501
1963-11-16,721.99402
1963-11-17,725.961
1963-11-18,515.71002
1963-11-19,535.54498
1963-11-20,654.55499
1963-11-21,759.68048
1963-11-22,745.79602
1963-11-23,678.35699
1963-11-24,674.39001
1963-11-25,674.39001
1963-11-26,1043.32104
1963-11-27,648.60449
1963-11-28,567.28101
1963-11-29,571.24799
1963-11-30,638.68701
1963-12-01,666.45599
1963-12-02,632.73651
1963-12-03,787.44952
1963-12-04,837.03699
1963-12-05,848.93799
1963-12-06,833.07001
1963-12-07,848.93799
1963-12-08,805.30103
1963-12-09,1110.76001
1963-12-10,1380.51599
1963-12-11,1787.13354
1963-12-12,1872.42395
1963-12-13,2102.51001
1963-12-14,2181.8501
1963-12-15,1662.17297
1963-12-16,1646.30505
1963-12-17,1638.37097
1963-12-18,1517.37756
1963-12-19,1622.50305
1963-12-20,1727.62854
1963-12-21,1693.90906
1963-12-22,1691.92554
1963-12-23,1719.69446
1963-12-24,1761.34802
1963-12-25,1789.11694
1963-12-26,1759.3645
1963-12-27,1507.45996
1963-12-28,1773.24902
1963-12-29,1783.1665
1963-12-30,1933.91248
1963-12-31,1765.31506
1964-01-01,1687.9585
1964-01-02,1689.94202
1964-01-03,1685.97498
1964-01-04,1701.84302
1964-01-05,1680.02454
1964-01-06,1943.82996
1964-01-07,2003.33496
1964-01-08,2003.33496
1964-01-09,2003.33496
1964-01-10,2043.005
1964-01-11,2023.17004
1964-01-12,2003.33496
1964-01-13,1947.797
1964-01-14,1983.5
1964-01-15,1943.82996
1964-01-16,1967.63196
1964-01-17,2062.84009
1964-01-18,2023.17004
1964-01-19,1945.81348
1964-01-20,1983.5
1964-01-21,1789.11694
1964-01-22,1735.5625
1964-01-23,1739.52954
1964-01-24,1749.44702
1964-01-25,1769.28198
1964-01-26,1743.49646
1964-01-27,1860.52295
1964-01-28,1920.02795
1964-01-29,1884.32495
1964-01-30,1906.14355
1964-01-31,1914.07751
1964-02-01,1906.14355
1964-02-02,1884.32495
1964-02-03,1920.02795
1964-02-04,2003.33496
1964-02-05,2003.33496
1964-02-06,1900.19299
1964-02-07,1927.96204
1964-02-08,1882.34155
1964-02-09,1834.73755
1964-02-10,1922.01147
1964-02-11,2439.70508
1964-02-12,2360.36499
1964-02-13,1834.73755
1964-02-14,1797.05103
1964-02-15,1874.40747
1964-02-16,1808.95203
1964-02-17,1947.797
1964-02-18,1977.54956
1964-02-19,1539.19604
1964-02-20,1896.22595
1964-02-21,1923.995
1964-02-22,1931.92896
1964-02-23,1918.04456
1964-02-24,1939.86304
1964-02-25,1846.63855
1964-02-26,1824.81995
1964-02-27,1941.84656
1964-02-28,1812.91895
1964-02-29,1783.1665
1964-03-01,1156.38049
1964-03-02,1190.09998
1964-03-03,1219.85254
1964-03-04,1235.72046
1964-03-05,1202.00098
1964-03-06,1202.00098
1964-03-07,1190.09998
1964-03-08,1213.90198
1964-03-09,1182.16602
1964-03-10,1215.8855
1964-03-11,1269.44006
1964-03-12,1217.86902
1964-03-13,1227.7865
1964-03-14,1194.06702
1964-03-15,1203.9845
1964-03-16,1225.80298
1964-03-17,1174.23206
1964-03-18,1160.34753
1964-03-19,1192.0835
1964-03-20,1186.13306
1964-03-21,1174.23206
1964-03-22,1164.31445
1964-03-23,1194.06702
1964-03-24,1194.06702
1964-03-25,1205.96802
1964-03-26,1172.24854
1964-03-27,1170.26501
1964-03-28,1104.80945
1964-03-29,1106.79297
1964-03-30,1114.72705
1964-03-31,1146.46301
1964-04-01,1176.21545
1964-04-02,1170.26501
1964-04-03,1160.34753
1964-04-04,1104.80945
1964-04-05,1102.82605
1964-04-06,1128.61145
1964-04-07,1130.59497
1964-04-08,1164.31445
1964-04-09,1186.13306
1964-04-10,1142.49597
1964-04-11,1114.72705
1964-04-12,1136.54553
1964-04-13,1168.28149
1964-04-14,1170.26501
1964-04-15,1150.43005
1964-04-16,1114.72705
1964-04-17,1118.69397
1964-04-18,1428.12
1964-04-19,1342.82947
1964-04-20,1200.01746
1964-04-21,952.08002
1964-04-22,928.27802
1964-04-23,1084.97449
1964-04-24,1128.61145
1964-04-25,1180.1825
1964-04-26,1205.96802
1964-04-27,1322.99451
1964-04-28,1267.45654
1964-04-29,1287.2915
1964-04-30,1168.28149
1964-05-01,1219.85254
1964-05-02,1658.20605
1964-05-03,1614.56897
1964-05-04,1517.37756
1964-05-05,1511.427
1964-05-06,1695.89246
1964-05-07,1810.93555
1964-05-08,2162.01489
1964-05-09,2380.19995
1964-05-10,1957.71448
1964-05-11,2499.20996
1964-05-12,2538.88013
1964-05-13,2479.375
1964-05-14,2499.20996
1964-05-15,2400.03491
1964-05-16,2320.69507
1964-05-17,2221.52002
1964-05-18,3114.09497
1964-05-19,4165.3501
1964-05-20,4105.84521
1964-05-21,4145.51514
1964-05-22,4165.3501
1964-05-23,3907.49512
1964-05-24,3808.32007
1964-05-25,4264.5249
1964-05-26,4105.84521
1964-05-27,4343.86523
1964-05-28,4264.5249
1964-05-29,4244.68994
1964-05-30,3986.83496
1964-05-31,3728.97998
1964-06-01,3649.63989
1964-06-02,3748.81494
1964-06-03,3629.80493
1964-06-04,3133.92993
1964-06-05,3272.7749
1964-06-06,2281.0249
1964-06-07,1965.64856
1964-06-08,3233.10498
1964-06-09,3252.93994
1964-06-10,3252.93994
1964-06-11,3014.91992
1964-06-12,2598.38501
1964-06-13,2281.0249
1964-06-14,2023.17004
1964-06-15,2499.20996
1964-06-16,2519.04492
1964-06-17,2439.70508
1964-06-18,2538.88013
1964-06-19,2558.71509
1964-06-20,2261.18994
1964-06-21,2320.69507
1964-06-22,2558.71509
1964-06-23,2737.22998
1964-06-24,2717.39502
1964-06-25,2737.22998
1964-06-26,2737.22998
1964-06-27,3451.29004
1964-06-28,3213.27002
1964-06-29,3609.96997
1964-06-30,3808.32007
1964-07-01,3728.97998
1964-07-02,3590.13501
1964-07-03,3609.96997
1964-07-04,3193.43506
1964-07-05,3213.27002
1964-07-06,4165.3501
1964-07-07,5038.08984
1964-07-08,5157.1001
1964-07-09,5256.2749
1964-07-10,5157.1001
1964-07-11,4740.56494
1964-07-12,4383.53516
1964-07-13,6267.85986
1964-07-14,6724.06494
1964-07-15,5990.16992
1964-07-16,5295.94482
1964-07-17,4621.55518
1964-07-18,5018.25488
1964-07-19,3689.31006
1964-07-20,4244.68994
1964-07-21,4324.02979
1964-07-22,4601.72021
1964-07-23,6862.91016
1964-07-24,6704.22998
1964-07-25,3967.0
1964-07-26,3609.96997
1964-07-27,5771.98486
1964-07-28,5593.47021
1964-07-29,5236.43994
1964-07-30,5117.43018
1964-07-31,5236.43994
1964-08-01,5157.1001
1964-08-02,3649.63989
1964-08-03,4938.91504
1964-08-04,4859.5752
1964-08-05,4800.06982
1964-08-06,4720.72998
1964-08-07,5355.4502
1964-08-08,4879.41016
1964-08-09,3292.61011
1964-08-10,4542.21484
1964-08-11,4641.39014
1964-08-12,4839.74023
1964-08-13,4502.54492
1964-08-14,4720.72998
1964-08-15,4661.2251
1964-08-16,4006.66992
1964-08-17,3550.46509
1964-08-18,3114.09497
1964-08-19,3114.09497
1964-08-20,3649.63989
1964-08-21,3590.13501
1964-08-22,3649.63989
1964-08-23,2995.08496
1964-08-24,3768.6499
1964-08-25,3332.28003
1964-08-26,3312.44507
1964-08-27,3352.11499
1964-08-28,3233.10498
1964-08-29,3094.26001
1964-08-30,1620.51953
1964-08-31,3510.79492
1964-09-01,3788.48511
1964-09-02,3669.4751
1964-09-03,3847.98999
1964-09-04,3847.98999
1964-09-05,1900.19299
1964-09-06,825.13599
1964-09-07,731.9115
1964-09-08,3609.96997
1964-09-09,4284.35986
1964-09-10,4145.51514
1964-09-11,4086.01001
1964-09-12,2876.07495
1964-09-13,1769.28198
1964-09-14,3867.82495
1964-09-15,4046.34009
1964-09-16,4066.17505
1964-09-17,4026.50513
1964-09-18,4363.7002
1964-09-19,4185.18506
1964-09-20,4066.17505
1964-09-21,5514.12988
1964-09-22,5553.7998
1964-09-23,5752.1499
1964-09-24,6148.8501
1964-09-25,6327.36523
1964-09-26,6882.74512
1964-09-27,5613.30518
1964-09-28,7041.4248
1964-09-29,6962.08496
1964-09-30,7081.09521
1964-10-01,6962.08496
1964-10-02,7100.93018
1964-10-03,4403.37012
1964-10-04,4066.17505
1964-10-05,4066.17505
1964-10-06,4760.3999
1964-10-07,4879.41016
1964-10-08,4958.75
1964-10-09,4958.75
1964-10-10,4641.39014
1964-10-11,4363.7002
1964-10-12,5176.93506
1964-10-13,5196.77002
1964-10-14,5454.625
1964-10-15,5474.45996
1964-10-16,5355.4502
1964-10-17,4800.06982
1964-10-18,4958.75
1964-10-19,5434.79004
1964-10-20,5494.29492
1964-10-21,4978.58496
1964-10-22,5355.4502
1964-10-23,5474.45996
1964-10-24,5256.2749
1964-10-25,4720.72998
1964-10-26,5295.94482
1964-10-27,4879.41016
1964-10-28,4859.5752
1964-10-29,4780.23486
1964-10-30,5494.29492
1964-10-31,5196.77002
1964-11-01,4839.74023
1964-11-02,5593.47021
1964-11-03,4482.70996
1964-11-04,4264.5249
1964-11-05,4224.85498
1964-11-06,4284.35986
1964-11-07,4165.3501
1964-11-08,3847.98999
1964-11-09,4125.68018
1964-11-10,4145.51514
1964-11-11,4046.34009
1964-11-12,4324.02979
1964-11-13,4403.37012
1964-11-14,5613.30518
1964-11-15,5315.77979
1964-11-16,4978.58496
1964-11-17,4641.39014
1964-11-18,5355.4502
1964-11-19,4998.41992
1964-11-20,4899.24512
1964-11-21,5573.63525
1964-11-22,5196.77002
1964-11-23,4661.2251
1964-11-24,4641.39014
1964-11-25,4522.37988
1964-11-26,4383.53516
1964-11-27,4462.875
1964-11-28,4502.54492
1964-11-29,4105.84521
1964-11-30,4819.90479
1964-12-01,4760.3999
1964-12-02,4879.41016
1964-12-03,5712.47998
1964-12-04,5890.99512
1964-12-05,6644.7251
1964-12-06,6327.36523
1964-12-07,7021.58984
1964-12-08,6902.58008
1964-12-09,6803.40479
1964-12-10,7041.4248
1964-12-11,4562.0498
1964-12-12,4284.35986
1964-12-13,4899.24512
1964-12-14,7001.75488
1964-12-15,6644.7251
1964-12-16,6327.36523
1964-12-17,6386.87012
1964-12-18,6922.41504
1964-12-19,6664.56006
1964-12-20,6089.34521
1964-12-21,6565.38525
1964-12-22,6069.51025
1964-12-23,6049.6748
1964-12-24,6605.05518
1964-12-25,5633.14014
1964-12-26,6069.51025
1964-12-27,6168.68506
1964-12-28,7200.10498
1964-12-29,7299.27979
1964-12-30,7319.11523
1964-12-31,7021.58984
1965-01-01,6188.52002
1965-01-02,6565.38525
1965-01-03,6148.8501
1965-01-04,7140.6001
1965-01-05,7061.26025
1965-01-06,6505.87988
1965-01-07,7041.4248
1965-01-08,7100.93018
1965-01-09,7061.26025
1965-01-10,6287.69482
1965-01-11,7259.60986
1965-01-12,6010.00488
1965-01-13,5811.65479
1965-01-14,2856.23999
1965-01-15,3570.30005
1965-01-16,7874.49512
1965-01-17,6466.20996
1965-01-18,8191.85498
1965-01-19,8152.18506
1965-01-20,8033.1748
1965-01-21,8092.68018
1965-01-22,8053.01025
1965-01-23,7596.80518
1965-01-24,6823.24023
1965-01-25,7616.64014
1965-01-26,8092.68018
1965-01-27,8370.37012
1965-01-28,7993.50488
1965-01-29,7814.99023
1965-01-30,7160.43506
1965-01-31,6624.89014
1965-02-01,7814.99023
1965-02-02,8231.52539
1965-02-03,7795.15479
1965-02-04,8053.01025
1965-02-05,8132.3501
1965-02-06,8072.84521
1965-02-07,7438.125
1965-02-08,8211.69043
1965-02-09,8211.69043
1965-02-10,8191.85498
1965-02-11,8013.33984
1965-02-12,7914.16504
1965-02-13,7814.99023
1965-02-14,7438.125
1965-02-15,8211.69043
1965-02-16,8449.70996
1965-02-17,7973.66992
1965-02-18,7596.80518
1965-02-19,8033.1748
1965-02-20,7755.48486
1965-02-21,7100.93018
1965-02-22,7557.13525
1965-02-23,8072.84521
1965-02-24,5811.65479
1965-02-25,4403.37012
1965-02-26,6565.38525
1965-02-27,7477.79492
1965-02-28,6823.24023
1965-03-01,6267.85986
1965-03-02,6823.24023
1965-03-03,6545.5498
1965-03-04,6188.52002
1965-03-05,6109.18018
1965-03-06,5672.81006
1965-03-07,4998.41992
1965-03-08,6624.89014
1965-03-09,8053.01025
1965-03-10,8132.3501
1965-03-11,8112.51514
1965-03-12,8132.3501
1965-03-13,8053.01025
1965-03-14,6902.58008
1965-03-15,7874.49512
1965-03-16,8092.68018
1965-03-17,7676.14502
1965-03-18,7656.31006
1965-03-19,8053.01025
1965-03-20,8033.1748
1965-03-21,8053.01025
1965-03-22,8053.01025
1965-03-23,8072.84521
1965-03-24,8072.84521
1965-03-25,8112.51514
1965-03-26,8152.18506
1965-03-27,8053.01025
1965-03-28,7735.6499
1965-03-29,8072.84521
1965-03-30,8092.68018
1965-03-31,8092.68018
1965-04-01,6704.22998
1965-04-02,8053.01025
1965-04-03,7814.99023
1965-04-04,8092.68018
1965-04-05,8072.84521
1965-04-06,8013.33984
1965-04-07,7695.97998
1965-04-08,7398.45508
1965-04-09,6803.40479
1965-04-10,5176.93506
1965-04-11,6307.52979
1965-04-12,6962.08496
1965-04-13,7497.62988
1965-04-14,7477.79492
1965-04-15,7517.46484
1965-04-16,6803.40479
1965-04-17,6743.8999
1965-04-18,7021.58984
1965-04-19,7061.26025
1965-04-20,7061.26025
1965-04-21,6962.08496
1965-04-22,7001.75488
1965-04-23,7081.09521
1965-04-24,7100.93018
1965-04-25,7180.27002
1965-04-26,6942.25
1965-04-27,4165.3501
1965-04-28,3788.48511
1965-04-29,3768.6499
1965-04-30,5256.2749
1965-05-01,1745.47998
1965-05-02,1676.0575
1965-05-03,1715.72754
1965-05-04,2201.68506
1965-05-05,2479.375
1965-05-06,2499.20996
1965-05-07,4522.37988
1965-05-08,1755.39746
1965-05-09,1158.36401
1965-05-10,1646.30505
1965-05-11,1057.20544
1965-05-12,983.81598
1965-05-13,1081.00745
1965-05-14,952.08002
1965-05-15,912.40997
1965-05-16,3332.28003
1965-05-17,1321.01099
1965-05-18,1979.53296
1965-05-19,3629.80493
1965-05-20,3173.6001
1965-05-21,2836.40503
1965-05-22,3114.09497
1965-05-23,3213.27002
1965-05-24,2757.06494
1965-05-25,2717.39502
1965-05-26,2737.22998
1965-05-27,2816.57007
1965-05-28,2281.0249
1965-05-29,2102.51001
1965-05-30,1031.42004
1965-05-31,882.65753
1965-06-01,944.146
1965-06-02,1378.53247
1965-06-03,1368.61499
1965-06-04,1358.69751
1965-06-05,1904.16003
1965-06-06,1685.97498
1965-06-07,3629.80493
1965-06-08,5117.43018
1965-06-09,4562.0498
1965-06-10,5137.26514
1965-06-11,3709.14502
1965-06-12,2499.20996
1965-06-13,2598.38501
1965-06-14,3292.61011
1965-06-15,3451.29004
1965-06-16,4324.02979
1965-06-17,3094.26001
1965-06-18,3391.78491
1965-06-19,4125.68018
1965-06-20,920.34399
1965-06-21,2757.06494
1965-06-22,3847.98999
1965-06-23,4324.02979
1965-06-24,4403.37012
1965-06-25,3689.31006
1965-06-26,1517.37756
1965-06-27,1864.48999
1965-06-28,1428.12
1965-06-29,1398.36755
1965-06-30,1884.32495
1965-07-01,1049.27148
1965-07-02,944.146
1965-07-03,842.98749
1965-07-04,967.948
1965-07-05,835.05353
1965-07-06,928.27802
1965-07-07,759.68048
1965-07-08,1211.91846
1965-07-09,775.54852
1965-07-10,936.21198
1965-07-11,813.23499
1965-07-12,767.6145
1965-07-13,767.6145
1965-07-14,767.6145
1965-07-15,759.68048
1965-07-16,1715.72754
1965-07-17,874.72351
1965-07-18,753.72998
1965-07-19,1303.15955
1965-07-20,874.72351
1965-07-21,813.23499
1965-07-22,842.98749
1965-07-23,835.05353
1965-07-24,813.23499
1965-07-25,858.85553
1965-07-26,827.11951
1965-07-27,821.16901
1965-07-28,813.23499
1965-07-29,805.30103
1965-07-30,1979.53296
1965-07-31,1081.00745
1965-08-01,805.30103
1965-08-02,821.16901
1965-08-03,1293.24194
1965-08-04,896.54199
1965-08-05,3054.59009
1965-08-06,960.01398
1965-08-07,797.367
1965-08-08,797.367
1965-08-09,821.16901
1965-08-10,797.367
1965-08-11,805.30103
1965-08-12,789.43298
1965-08-13,850.92151
1965-08-14,789.43298
1965-08-15,789.43298
1965-08-16,789.43298
1965-08-17,912.40997
1965-08-18,936.21198
1965-08-19,1049.27148
1965-08-20,1202.00098
1965-08-21,789.43298
1965-08-22,783.48248
1965-08-23,866.78949
1965-08-24,1166.29797
1965-08-25,797.367
1965-08-26,783.48248
1965-08-27,783.48248
1965-08-28,783.48248
1965-08-29,775.54852
1965-08-30,858.85553
1965-08-31,2221.52002
1965-09-01,1148.44653
1965-09-02,835.05353
1965-09-03,983.81598
1965-09-04,767.6145
1965-09-05,759.68048
1965-09-06,767.6145
1965-09-07,858.85553
1965-09-08,745.79602
1965-09-09,759.68048
1965-09-10,759.68048
1965-09-11,1158.36401
1965-09-12,759.68048
1965-09-13,783.48248
1965-09-14,759.68048
1965-09-15,753.72998
1965-09-16,753.72998
1965-09-17,1735.5625
1965-09-18,2439.70508
1965-09-19,2419.87012
1965-09-20,2439.70508
1965-09-21,1979.53296
1965-09-22,2657.88989
1965-09-23,2499.20996
1965-09-24,1184.14954
1965-09-25,1447.95496
1965-09-26,1854.57251
1965-09-27,2439.70508
1965-09-28,2320.69507
1965-09-29,2657.88989
1965-09-30,2261.18994
1965-10-01,2638.05493
1965-10-02,965.96448
1965-10-03,1063.15601
1965-10-04,961.9975
1965-10-05,1959.698
1965-10-06,1594.73401
1965-10-07,1606.63501
1965-10-08,2677.7251
1965-10-09,3133.92993
1965-10-10,2519.04492
1965-10-11,3411.62012
1965-10-12,3510.79492
1965-10-13,3173.6001
1965-10-14,3193.43506
1965-10-15,3550.46509
1965-10-16,3054.59009
1965-10-17,3728.97998
1965-10-18,3292.61011
1965-10-19,3570.30005
1965-10-20,3451.29004
1965-10-21,3669.4751
1965-10-22,3768.6499
1965-10-23,3728.97998
1965-10-24,4403.37012
1965-10-25,870.75653
1965-10-26,842.98749
1965-10-27,1703.82654
1965-10-28,1442.00452
1965-10-29,1761.34802
1965-10-30,1701.84302
1965-10-31,1646.30505
1965-11-01,2499.20996
1965-11-02,2558.71509
1965-11-03,2519.04492
1965-11-04,2023.17004
1965-11-05,2558.71509
1965-11-06,2677.7251
1965-11-07,2479.375
1965-11-08,2538.88013
1965-11-09,2578.55005
1965-11-10,2538.88013
1965-11-11,2538.88013
1965-11-12,2915.74512
1965-11-13,4462.875
1965-11-14,4700.89502
1965-11-15,4601.72021
1965-11-16,3014.91992
1965-11-17,5057.9248
1965-11-18,5454.625
1965-11-19,5454.625
1965-11-20,5434.79004
1965-11-21,5434.79004
1965-11-22,5434.79004
1965-11-23,5454.625
1965-11-24,5395.12012
1965-11-25,5117.43018
1965-11-26,5057.9248
1965-11-27,5117.43018
1965-11-28,4938.91504
1965-11-29,5057.9248
1965-11-30,4839.74023
1965-12-01,5157.1001
1965-12-02,5018.25488
1965-12-03,4819.90479
1965-12-04,5038.08984
1965-12-05,4720.72998
1965-12-06,4859.5752
1965-12-07,4978.58496
1965-12-08,4998.41992
1965-12-09,5018.25488
1965-12-10,5018.25488
1965-12-11,4601.72021
1965-12-12,1438.03748
1965-12-13,4938.91504
1965-12-14,4958.75
1965-12-15,4542.21484
1965-12-16,4621.55518
1965-12-17,4562.0498
1965-12-18,4562.0498
1965-12-19,4462.875
1965-12-20,4502.54492
1965-12-21,5057.9248
1965-12-22,3967.0
1965-12-23,1683.99146
1965-12-24,1378.53247
1965-12-25,1584.81653
1965-12-26,1330.92847
1965-12-27,1781.18298
1965-12-28,1515.39404
1965-12-29,1521.34448
1965-12-30,1533.24548
1965-12-31,1493.57556
1966-01-01,2300.86011
1966-01-02,1576.88245
1966-01-03,2320.69507
1966-01-04,2162.01489
1966-01-05,2340.53003
1966-01-06,2380.19995
1966-01-07,2380.19995
1966-01-08,2419.87012
1966-01-09,1939.86304
1966-01-10,2479.375
1966-01-11,2181.8501
1966-01-12,2439.70508
1966-01-13,2400.03491
1966-01-14,2360.36499
1966-01-15,2380.19995
1966-01-16,2043.005
1966-01-17,2400.03491
1966-01-18,2380.19995
1966-01-19,2380.19995
1966-01-20,2538.88013
1966-01-21,2043.005
1966-01-22,1634.40405
1966-01-23,1850.60547
1966-01-24,2657.88989
1966-01-25,2657.88989
1966-01-26,2618.21997
1966-01-27,3173.6001
1966-01-28,2538.88013
1966-01-29,2023.17004
1966-01-30,1644.32153
1966-01-31,2895.90991
1966-02-01,2578.55005
1966-02-02,2618.21997
1966-02-03,2519.04492
1966-02-04,2638.05493
1966-02-05,2697.56006
1966-02-06,2499.20996
1966-02-07,2618.21997
1966-02-08,2657.88989
1966-02-09,3014.91992
1966-02-10,2558.71509
1966-02-11,2975.25
1966-02-12,2519.04492
1966-02-13,1509.44348
1966-02-14,2995.08496
1966-02-15,1965.64856
1966-02-16,2241.35498
1966-02-17,2618.21997
1966-02-18,2776.8999
1966-02-19,3332.28003
1966-02-20,1525.31152
1966-02-21,3094.26001
1966-02-22,1348.78003
1966-02-23,2876.07495
1966-02-24,2975.25
1966-02-25,2558.71509
1966-02-26,3153.76489
1966-02-27,2162.01489
1966-02-28,2796.73511
1966-03-01,2598.38501
1966-03-02,2657.88989
1966-03-03,2697.56006
1966-03-04,2618.21997
1966-03-05,2519.04492
1966-03-06,2538.88013
1966-03-07,2598.38501
1966-03-08,2836.40503
1966-03-09,2836.40503
1966-03-10,2836.40503
1966-03-11,2558.71509
1966-03-12,2816.57007
1966-03-13,2419.87012
1966-03-14,2895.90991
1966-03-15,3034.75513
1966-03-16,2955.41504
1966-03-17,3173.6001
1966-03-18,2300.86011
1966-03-19,1313.07703
1966-03-20,975.88202
1966-03-21,1537.21252
1966-03-22,2221.52002
1966-03-23,1693.90906
1966-03-24,1953.74756
1966-03-25,2043.005
1966-03-26,1051.255
1966-03-27,1011.58502
1966-03-28,1902.17651
1966-03-29,1810.93555
1966-03-30,2142.17993
1966-03-31,2281.0249
1966-04-01,2122.34497
1966-04-02,1664.15649
1966-04-03,3828.15503
1966-04-04,4700.89502
1966-04-05,5454.625
1966-04-06,4919.08008
1966-04-07,4601.72021
1966-04-08,4998.41992
1966-04-09,4343.86523
1966-04-10,3252.93994
1966-04-11,4998.41992
1966-04-12,5335.61523
1966-04-13,4502.54492
1966-04-14,4462.875
1966-04-15,4502.54492
1966-04-16,4482.70996
1966-04-17,1469.77356
1966-04-18,4740.56494
1966-04-19,4641.39014
1966-04-20,4859.5752
1966-04-21,4562.0498
1966-04-22,4859.5752
1966-04-23,5097.59521
1966-04-24,4482.70996
1966-04-25,4284.35986
1966-04-26,4621.55518
1966-04-27,4700.89502
1966-04-28,4859.5752
1966-04-29,4919.08008
1966-04-30,3709.14502
1966-05-01,2241.35498
1966-05-02,4522.37988
1966-05-03,4244.68994
1966-05-04,3371.94995
1966-05-05,3252.93994
1966-05-06,2102.51001
1966-05-07,1358.69751
1966-05-08,920.34399
1966-05-09,1707.79346
1966-05-10,2241.35498
1966-05-11,4066.17505
1966-05-12,3153.76489
1966-05-13,2796.73511
1966-05-14,938.1955
1966-05-15,967.948
1966-05-16,3967.0
1966-05-17,4363.7002
1966-05-18,2300.86011
1966-05-19,3312.44507
1966-05-20,3788.48511
1966-05-21,1935.896
1966-05-22,1037.37048
1966-05-23,3312.44507
1966-05-24,3808.32007
1966-05-25,1850.60547
1966-05-26,1307.12646
1966-05-27,2082.67505
1966-05-28,3332.28003
1966-05-29,3272.7749
1966-05-30,2737.22998
1966-05-31,2816.57007
1966-06-01,3074.42505
1966-06-02,2281.0249
1966-06-03,3649.63989
1966-06-04,3828.15503
1966-06-05,2618.21997
1966-06-06,3133.92993
1966-06-07,3471.125
1966-06-08,3193.43506
1966-06-09,2578.55005
1966-06-10,3133.92993
1966-06-11,2082.67505
1966-06-12,2796.73511
1966-06-13,3054.59009
1966-06-14,3352.11499
1966-06-15,3490.95996
1966-06-16,3550.46509
1966-06-17,3907.49512
1966-06-18,2876.07495
1966-06-19,2598.38501
1966-06-20,2915.74512
1966-06-21,2538.88013
1966-06-22,3193.43506
1966-06-23,3312.44507
1966-06-24,3252.93994
1966-06-25,3352.11499
1966-06-26,3252.93994
1966-06-27,3312.44507
1966-06-28,3728.97998
1966-06-29,3510.79492
1966-06-30,3570.30005
1966-07-01,3411.62012
1966-07-02,3431.45508
1966-07-03,3114.09497
1966-07-04,3510.79492
1966-07-05,3153.76489
1966-07-06,3391.78491
1966-07-07,3352.11499
1966-07-08,3094.26001
1966-07-09,3173.6001
1966-07-10,3173.6001
1966-07-11,3352.11499
1966-07-12,3074.42505
1966-07-13,3213.27002
1966-07-14,3550.46509
1966-07-15,3332.28003
1966-07-16,3133.92993
1966-07-17,3332.28003
1966-07-18,3768.6499
1966-07-19,3431.45508
1966-07-20,3590.13501
1966-07-21,3649.63989
1966-07-22,3748.81494
1966-07-23,3391.78491
1966-07-24,3153.76489
1966-07-25,3530.63013
1966-07-26,3233.10498
1966-07-27,3570.30005
1966-07-28,3292.61011
1966-07-29,3609.96997
1966-07-30,3252.93994
1966-07-31,3312.44507
1966-08-01,3431.45508
1966-08-02,3114.09497
1966-08-03,3431.45508
1966-08-04,3609.96997
1966-08-05,3590.13501
1966-08-06,3669.4751
1966-08-07,3114.09497
1966-08-08,3471.125
1966-08-09,3689.31006
1966-08-10,4224.85498
1966-08-11,3867.82495
1966-08-12,4324.02979
1966-08-13,4224.85498
1966-08-14,3808.32007
1966-08-15,3570.30005
1966-08-16,3550.46509
1966-08-17,4165.3501
1966-08-18,4205.02002
1966-08-19,4383.53516
1966-08-20,3967.0
1966-08-21,3550.46509
1966-08-22,4343.86523
1966-08-23,3887.65991
1966-08-24,4720.72998
1966-08-25,4601.72021
1966-08-26,3570.30005
1966-08-27,3391.78491
1966-08-28,2717.39502
1966-08-29,4244.68994
1966-08-30,4205.02002
1966-08-31,3451.29004
1966-09-01,3451.29004
1966-09-02,3471.125
1966-09-03,3411.62012
1966-09-04,3312.44507
1966-09-05,3471.125
1966-09-06,4006.66992
1966-09-07,3451.29004
1966-09-08,3828.15503
1966-09-09,4462.875
1966-09-10,4383.53516
1966-09-11,4006.66992
1966-09-12,3709.14502
1966-09-13,4205.02002
1966-09-14,4244.68994
1966-09-15,4522.37988
1966-09-16,4443.04004
1966-09-17,4641.39014
1966-09-18,4462.875
1966-09-19,5811.65479
1966-09-20,5276.10986
1966-09-21,5057.9248
1966-09-22,4720.72998
1966-09-23,4938.91504
1966-09-24,4700.89502
1966-09-25,1685.97498
1966-09-26,4760.3999
1966-09-27,2499.20996
1966-09-28,4958.75
1966-09-29,3451.29004
1966-09-30,4324.02979
1966-10-01,4185.18506
1966-10-02,3907.49512
1966-10-03,4462.875
1966-10-04,4224.85498
1966-10-05,4026.50513
1966-10-06,4522.37988
1966-10-07,4522.37988
1966-10-08,3292.61011
1966-10-09,3391.78491
1966-10-10,5097.59521
1966-10-11,4601.72021
1966-10-12,5514.12988
1966-10-13,6307.52979